STEAMSAT-2

导读 | 星芒AI

STEAMSAT-2 是一颗由印度学生团队设计和建造的立方体卫星,旨在通过教育和研究促进航天技术的发展。该卫星搭载多种有效载荷,用于测试通信系统、进行大气研究,并支持教育项目。它于2023年发射,作为STEAMSAT系列的第二颗卫星,继续推动STEAM(科学、技术、工程、艺术和数学)教育的实践与创新。

基本信息
目录编号:
51099
目录名称:
STEAMSAT-2
国际标识:
2022-003F
轨道中心:
EARTH
卫星名称:
STEAMSAT-2
卫星全名:
--
卫星状态:
已陨落 最后检测时间 2023-09-26
发射日期:
2022-01-13 UTC
国别 :
波兰 (PL)
星等 :
--
轨道信息
数据来源 国际轨道数据
星历时间: 2023-09-24T04:34:55+0800
轨道信息已过期813天
半长轴: 6604.012km
偏心率: 0.0015779
轨道倾角: 44.900°
近地点辐角 350.547°
升交点赤经 358.614°
平近点角 9.515°
近地点: 215.456km
远地点: 236.298km
周期: 89.017分钟
每日圈数: 16.17674
详细信息
使用方式:
暂无